Location: Znojmo
(48.8500°N, 16.0500°E)
Time: 12:35:41
(UTC+02:00)

ISS - Pass Details

Date: 01 April 2019
Orbit: 408 x 410 km, 51.6° (Epoch: 24 April)

Event Time Altitude Azimuth Distance (km) Brightness Sun altitude
Rises 21:46:40 0° 290° (WNW) 2,339 1.3 -22.1°
Reaches altitude 10° 21:48:46 10° 287° (WNW) 1,475 0.0 -22.3°
Enters shadow 21:51:09 41° 267° (W) 602 -2.7 -22.6°
